| time (UTC) | temp F | wind direction | speed MPH | gust MPH | rain 1hr in | rain 24hr in | rain mn in | humidity % | barometer mb |
| 20260904010204 | 61 | 160 | 2.0 | 10.0 | 0.07 | 0.15 | 0.14 | 81 | 1009.8 |
| 20260904003704 | 66 | 28 | 1.0 | 3.0 | 0.00 | 0.09 | 0.07 | 64 | 1009.4 |
| 20260904003203 | 66 | 41 | 1.0 | 8.0 | 0.00 | 0.10 | 0.07 | 64 | 1009.3 |
| 20260904000704 | 67 | 15 | 1.0 | 3.0 | 0.00 | 0.11 | 0.07 | 64 | 1009.4 |
| 20260904000205 | 67 | 27 | 2.0 | 8.0 | 0.00 | 0.11 | 0.07 | 63 | 1009.3 |
| 20260903233704 | 69 | 56 | 2.0 | 5.0 | 0.00 | 0.11 | 0.07 | 61 | 1009.4 |
| 20260903233203 | 69 | 59 | 3.0 | 6.0 | 0.00 | 0.11 | 0.07 | 61 | 1009.4 |
| 20260903230704 | 71 | 1 | 2.0 | 6.0 | 0.00 | 0.12 | 0.07 | 59 | 1009.3 |
| 20260903230203 | 70 | 40 | 3.0 | 6.0 | 0.00 | 0.12 | 0.07 | 63 | 1009.4 |
| 20260903223704 | 67 | 31 | 2.0 | 6.0 | 0.00 | 0.15 | 0.07 | 66 | 1009.6 |
| 20260903223203 | 67 | 7 | 3.0 | 5.0 | 0.00 | 0.16 | 0.07 | 68 | 1009.6 |
| 20260903220704 | 65 | 44 | 0.0 | 2.0 | 0.00 | 0.19 | 0.07 | 68 | 1009.7 |
| 20260903220204 | 65 | 44 | 1.0 | 5.0 | 0.00 | 0.19 | 0.07 | 69 | 1009.8 |
| 20260903213704 | 64 | 198 | 1.0 | 3.0 | 0.00 | 0.22 | 0.07 | 68 | 1009.8 |
| 20260903213204 | 65 | 266 | 3.0 | 7.0 | 0.00 | 0.22 | 0.07 | 66 | 1009.8 |
| 20260903210704 | 65 | 230 | 2.0 | 13.0 | 0.00 | 0.24 | 0.07 | 68 | 1009.7 |
| 20260903203205 | 67 | 287 | 4.0 | 10.0 | 0.00 | 0.25 | 0.07 | 62 | 1009.5 |
| 20260903200704 | 64 | 279 | 2.0 | 7.0 | 0.00 | 0.25 | 0.07 | 66 | 1009.5 |
| 20260903200204 | 64 | 292 | 3.0 | 10.0 | 0.00 | 0.25 | 0.07 | 67 | 1009.5 |
| 20260903193704 | 64 | 246 | 2.0 | 7.0 | 0.00 | 0.28 | 0.07 | 68 | 1009.5 |
| 20260903193204 | 64 | 185 | 3.0 | 12.0 | 0.00 | 0.28 | 0.07 | 67 | 1009.5 |
| 20260903190704 | 65 | 180 | 2.0 | 5.0 | 0.00 | 0.28 | 0.07 | 68 | 1009.4 |
| 20260903190204 | 64 | 160 | 2.0 | 9.0 | 0.00 | 0.28 | 0.07 | 69 | 1009.5 |
| 20260903183703 | 63 | 244 | 2.0 | 5.0 | 0.00 | 0.28 | 0.07 | 70 | 1009.5 |
| 20260903183204 | 62 | 188 | 2.0 | 7.0 | 0.00 | 0.28 | 0.07 | 71 | 1009.5 |
| 20260903180703 | 61 | 159 | 3.0 | 5.0 | 0.00 | 0.28 | 0.07 | 73 | 1009.5 |
| 20260903180204 | 61 | 163 | 4.0 | 9.0 | 0.00 | 0.28 | 0.07 | 73 | 1009.4 |
| 20260903173704 | 61 | 156 | 3.0 | 7.0 | 0.00 | 0.28 | 0.07 | 75 | 1009.3 |
| 20260903170704 | 61 | 119 | 1.0 | 3.0 | 0.00 | 0.28 | 0.07 | 81 | 1009.1 |
| 20260903170204 | 60 | 61 | 1.0 | 7.0 | 0.00 | 0.28 | 0.07 | 83 | 1009.1 |
| 20260903163704 | 59 | 136 | 3.0 | 6.0 | 0.00 | 0.28 | 0.07 | 83 | 1009.1 |
| 20260903163204 | 59 | 78 | 1.0 | 3.0 | 0.00 | 0.28 | 0.07 | 83 | 1009.1 |
| 20260903160204 | 58 | 163 | 1.0 | 7.0 | 0.00 | 0.28 | 0.07 | 85 | 1009.2 |
| 20260903153703 | 56 | 123 | 2.0 | 3.0 | 0.00 | 0.28 | 0.07 | 88 | 1009.0 |
| 20260903153204 | 56 | 71 | 2.0 | 9.0 | 0.00 | 0.28 | 0.07 | 88 | 1008.9 |
| 20260903150704 | 55 | 104 | 3.0 | 7.0 | 0.00 | 0.28 | 0.07 | 89 | 1008.9 |
| 20260903143704 | 55 | 90 | 3.0 | 7.0 | 0.00 | 0.28 | 0.07 | 90 | 1008.7 |
| 20260903143204 | 55 | 96 | 3.0 | 8.0 | 0.01 | 0.28 | 0.07 | 90 | 1008.7 |
| 20260903140704 | 55 | 103 | 2.0 | 8.0 | 0.02 | 0.28 | 0.07 | 91 | 1008.7 |
| 20260903133703 | 54 | 96 | 2.0 | 3.0 | 0.05 | 0.28 | 0.07 | 91 | 1008.6 |
| 20260903133204 | 54 | 86 | 2.0 | 3.0 | 0.04 | 0.27 | 0.06 | 91 | 1008.6 |
| 20260903130704 | 55 | 129 | 2.0 | 3.0 | 0.05 | 0.26 | 0.05 | 90 | 1008.5 |
| 20260903123704 | 55 | 254 | 1.0 | 2.0 | 0.02 | 0.23 | 0.02 | 90 | 1008.5 |
| 20260903123204 | 55 | 134 | 0.0 | 5.0 | 0.02 | 0.23 | 0.02 | 89 | 1008.4 |
| 20260903120703 | 55 | 220 | 1.0 | 3.0 | 0.00 | 0.21 | 0.00 | 85 | 1008.2 |
| 20260903120204 | 56 | 100 | 0.0 | 8.0 | 0.00 | 0.21 | 0.00 | 85 | 1008.0 |
| 20260903113204 | 56 | 97 | 2.0 | 7.0 | 0.00 | 0.21 | 0.00 | 86 | 1007.8 |
| 20260903110704 | 55 | 77 | 3.0 | 7.0 | 0.00 | 0.21 | 0.00 | 86 | 1007.8 |
| 20260903110204 | 55 | 89 | 2.0 | 7.0 | 0.00 | 0.21 | 0.00 | 86 | 1007.7 |
| 20260903103203 | 55 | 86 | 3.0 | 6.0 | 0.00 | 0.21 | 0.00 | 87 | 1007.6 |
| 20260903100704 | 55 | 85 | 2.0 | 3.0 | 0.00 | 0.21 | 0.00 | 88 | 1007.7 |
| 20260903100204 | 55 | 62 | 2.0 | 3.0 | 0.00 | 0.21 | 0.00 | 88 | 1007.8 |
| 20260903093704 | 56 | 72 | 2.0 | 3.0 | 0.00 | 0.21 | 0.00 | 86 | 1007.7 |
| 20260903093204 | 56 | 108 | 0.0 | 1.0 | 0.00 | 0.21 | 0.00 | 85 | 1007.8 |
| 20260903090704 | 56 | 108 | 1.0 | 2.0 | 0.00 | 0.21 | 0.00 | 84 | 1007.7 |
| 20260903090204 | 56 | 108 | 1.0 | 7.0 | 0.00 | 0.21 | 0.00 | 84 | 1007.6 |
| 20260903083704 | 56 | 124 | 2.0 | 3.0 | 0.00 | 0.21 | 0.00 | 84 | 1007.5 |
| 20260903080704 | 56 | 96 | 2.0 | 3.0 | 0.00 | 0.21 | 0.00 | 85 | 1007.5 |
| 20260903080204 | 56 | 99 | 2.0 | 7.0 | 0.00 | 0.21 | 0.00 | 85 | 1007.5 |
| 20260903073704 | 56 | 78 | 3.0 | 6.0 | 0.00 | 0.21 | 0.00 | 86 | 1007.5 |
| 20260903073204 | 56 | 101 | 3.0 | 7.0 | 0.00 | 0.21 | 0.00 | 85 | 1007.4 |
| 20260903070703 | 57 | 105 | 2.0 | 5.0 | 0.00 | 0.21 | 0.00 | 83 | 1007.2 |
| 20260903070205 | 57 | 115 | 2.0 | 8.0 | 0.00 | 0.21 | 0.00 | 82 | 1007.3 |
| 20260903063704 | 58 | 122 | 3.0 | 8.0 | 0.00 | 0.21 | 0.21 | 82 | 1007.2 |
| 20260903063204 | 57 | 130 | 5.0 | 10.0 | 0.00 | 0.21 | 0.21 | 82 | 1007.2 |
| 20260903060704 | 57 | 118 | 3.0 | 7.0 | 0.00 | 0.21 | 0.21 | 85 | 1007.3 |
| 20260903060204 | 57 | 106 | 2.0 | 6.0 | 0.00 | 0.21 | 0.21 | 86 | 1007.3 |
| 20260903053703 | 57 | 118 | 3.0 | 5.0 | 0.00 | 0.21 | 0.21 | 88 | 1007.3 |
| 20260903050703 | 57 | 118 | 2.0 | 3.0 | 0.00 | 0.21 | 0.21 | 89 | 1007.2 |
| 20260903050205 | 57 | 90 | 2.0 | 3.0 | 0.00 | 0.21 | 0.21 | 88 | 1007.3 |
| 20260903043704 | 58 | 90 | 2.0 | 6.0 | 0.00 | 0.21 | 0.21 | 89 | 1007.2 |
| 20260903043204 | 58 | 98 | 3.0 | 7.0 | 0.00 | 0.21 | 0.21 | 89 | 1007.2 |
| 20260903033206 | 59 | 110 | 2.0 | 8.0 | 0.00 | 0.21 | 0.21 | 89 | 1006.5 |
| 20260903030203 | 59 | 90 | 2.0 | 5.0 | 0.00 | 0.21 | 0.21 | 89 | 1006.2 |
| 20260903023704 | 60 | 104 | 2.0 | 3.0 | 0.00 | 0.21 | 0.21 | 85 | 1005.8 |
| 20260903023204 | 61 | 112 | 2.0 | 9.0 | 0.00 | 0.21 | 0.21 | 84 | 1005.8 |
| 20260903020703 | 61 | 147 | 3.0 | 12.0 | 0.01 | 0.21 | 0.21 | 82 | 1005.6 |
| 20260903013704 | 61 | 183 | 3.0 | 8.0 | 0.02 | 0.21 | 0.21 | 87 | 1005.5 |
| 20260903013204 | 61 | 176 | 4.0 | 15.0 | 0.03 | 0.21 | 0.21 | 87 | 1005.5 |